Regional Weather Roundup
Issued by NWS Upton, NY

Current Version | Previous Version | Graphics & Text | Print | Product List | Glossary Off
Versions: 1 2 3 4 5 6 7 8 9 10 11 12 13 14 15 16 17 18 19 20 21 22 23 24 25 26 27 28 29 30 31 32 33 34 35 36 37 38 39 40 41 42 43 44 45 46 47 48 49 50

000
ASUS41 KOKX 280705
RWROKX

REGIONAL WEATHER ROUNDUP
NATIONAL WEATHER SERVICE NEW YORK NY
200 AM EST SUN DEC 28 2014

NOTE: "FAIR" INDICATES FEW OR NO CLOUDS BELOW 12,000 FEET WITH NO
SIGNIFICANT WEATHER AND/OR OBSTRUCTIONS TO VISIBILITY.

NYZ071-072-176-178-NJZ106-104-280800-
NEW YORK CITY METRO AREA


CITY           SKY/WX    TMP DP  RH WIND       PRES   REMARKS
CENTRAL PARK   CLOUDY    50  35  56 SW8       30.02F
LAGUARDIA APRT CLOUDY    48  35  60 S6        30.00F
KENNEDY INTL   MOCLDY    44  38  79 S8        30.02F
NEWARK/LIBERTY MOCLDY    44  37  76 S3        30.00F
BRNX BOT. GARD   N/A     48  36  61 E1        30.00F
TETERBORO      CLOUDY    45  35  68 S7        29.99F
$$

NYZ177-179-078>081-280800-
LONG ISLAND NEW YORK

CITY           SKY/WX    TMP DP  RH WIND       PRES   REMARKS
FARMINGDALE    PTCLDY    44  39  82 SW8       30.01F
ISLIP          PTCLDY    44  40  85 S6        29.99F
SHIRLEY        PTCLDY    41  39  93 S5        30.01F
WESTHAMPTON    PTCLDY    44  41  89 SW5       30.03F
MONTAUK POINT    N/A     49  43  80 SW8       30.02F
$$

NYZ052-065-067-280800-
HUDSON VALLEY

CITY           SKY/WX    TMP DP  RH WIND       PRES   REMARKS
WHITE PLAINS   CLOUDY    45  34  65 S5        29.97F
NEWBURGH       NOT AVBL
MONTGOMERY     CLOUDY    46  32  58 S5        29.93F
POUGHKEEPSIE   CLOUDY    43  35  73 CALM      29.95F
ALBANY         LGT RAIN  47  36  65 S9        29.89F
$$

NJZ001-105-106-008-010-013-015-019>022-104-280800-
NEW JERSEY

CITY           SKY/WX    TMP DP  RH WIND       PRES   REMARKS
NEWARK/LIBERTY MOCLDY    44  37  76 S3        30.00F
TETERBORO      CLOUDY    45  35  68 S7        29.99F
CALDWELL       MOCLDY    44  32  62 SW3       29.99F
MORRISTOWN     MOCLDY    37  34  87 CALM      29.98F
SOMERVILLE     PTCLDY    32  29  88 CALM      29.97F
SUSSEX         CLOUDY    38  33  82 CALM      29.95F
ANDOVER        NOT AVBL
TRENTON        PTCLDY    40  34  79 S5        29.99F
MILLVILLE      PTCLDY    42  38  85 S3        30.02F
ATLANTIC CITY  PTCLDY    42  37  82 S3        30.03F
WRIGHTSTOWN    MOCLDY    36  35  99 S3        29.98F
TOMS RIVER     CLEAR     32  30  93 CALM      30.02F
BELMAR         PTCLDY    41  34  75 S6        30.01F
$$

PAZ047>061-062-071-280800-
EASTERN PENNSYLVANIA

CITY           SKY/WX    TMP DP  RH WIND       PRES   REMARKS
PHILADELPHIA   MOCLDY    41  36  82 CALM      30.01F
ALLENTOWN      MOCLDY    36  31  82 N5        29.97F WCI  32
SCRANTON       CLOUDY    49  27  42 SW8G16    29.92F
$$

CTZ002-004>006-009-010-012-RIZ004-006-007-MAZ004-011-015-280800-
SOUTHERN NEW ENGLAND
 IN CT

CITY           SKY/WX    TMP DP  RH WIND       PRES   REMARKS
BRADLEY INTL   CLOUDY    45  33  63 S9        29.93F
HARTFORD       MOCLDY    45  34  65 S5        29.96F
DANBURY        MOCLDY    48  27  44 S6        29.97F
WTRBRY/OXFORD  PTCLDY    45  30  57 SW6       29.97F
BRIDGEPORT     PTCLDY    44  39  82 SW5       29.99F
MERIDEN        PTCLDY    42  35  76 S6        29.97F
NEW HAVEN      MOCLDY    45  39  79 S6        29.98F
CHESTER        CLOUDY    45  37  76 SW7       29.98F
GROTON         MOCLDY    42  40  92 S6        30.00F
WILLIMANTIC    PTCLDY    35  32  88 S3        29.96F

 IN RI

CITY           SKY/WX    TMP DP  RH WIND       PRES   REMARKS
PROVIDENCE     MOCLDY    39  33  79 SW6       30.00F WCI  35
BLOCK ISLAND   MOCLDY    48  43  81 SW15      30.02F
WESTERLY       CLOUDY    44  41  89 SW6       30.01F

 IN MA

CITY           SKY/WX    TMP DP  RH WIND       PRES   REMARKS
BOSTON         CLOUDY    45  34  65 SW14      29.94F
WORCESTER      MOCLDY    43  32  65 SW14      29.91F
WESTFIELD      MOCLDY    42  33  70 CALM      29.94F
PROVINCETOWN   PTCLDY    45  37  76 SW13      29.99F
NANTUCKET      PTCLDY    45  42  89 S8        30.03F
$$

ANZ330-335-338-340-345-350-353-355-280800-
COASTAL MARINE OBSERVATIONS


STATION/POSITION TIME  SKY/WX   TEMP    WIND        PRES    VSBY  WAVE
                                AIR SEA DIR/SP/G                  HT/PER
                 (UTC)          (F)     (DEG/KT/KT) (MB)    (MI)  (FT/S)
NY HARB ENTRANCE 0700            46 45  210/ 12/ 14 1016.7          3/15
4S FIRE IS       0700               47                N/A           3/14
20S FIRE ISLAND  0600            50 49              1018.0          4/14
23SW MTP         0700                                 N/A           3/ 5
HUDSON CANYON    0700            54 55  230/ 16/ 17 1018.1          4/14
EXECUTION ROCKS  0700            46 42  180/  8/ 10   N/A
WESTERN LI SOUND 0700            45     180/  6/  8   N/A           0
CENTRAL LI SOUND 0600            45 44  220/  8/ 10   N/A           1/ 3
EASTERN LI SOUND NOT AVBL
ROBBINS REEF     0700            46                 1015.0
$$


>>>>>>>>>>>>>>>>>>>>>>>>>>>> KEY <<<<<<<<<<<<<<<<<<<<<<<<<<<
>                                                          <
>     SKY/WX - SKY CONDITION/PRESENT WEATHER               <
>     TMP    - TEMPERATURE IN FAHRENHEIT                   <
>     DP     - DEWPOINT IN FAHRENHEIT                      <
>     RH     - RELATIVE HUMIDITY IN PERCENT                <
>     WIND   - DIRECTION AND SPEED IN MPH                  <
>     PRES   - MEAN SEA LEVEL PRESSURE IN INCHES OF HG     <
>     WCI    - WIND CHILL INDEX                            <
>     VSB    - VISIBILITY IN MILES                         <
>     HX     - HEAT INDEX                                  <
>     TC     - TEMPERATURE IN CELSIUS                      <
>     VRB    - VARIABLE WIND DIRECTION                     <
>                                                          <
>>>>>>>>>>>>>>>>>>>>>>>>>>>> KEY <<<<<<<<<<<<<<<<<<<<<<<<<<<




USA.gov is the U.S. government's official web portal to all federal, state and local government web resources and services.